#timestamp,LO_Frequency,Hit 
1502139615.1,286047029.2,N
1502139635.8,286047027.3,N
1502139655.7,286047027.4,N
1502139675.5,286047027.7,N
1502139695.3,286047029.8,N
1502139715.2,286047029.3,N
1502139735.9,286047027.1,N
1502139755.7,286047027.8,N
1502139775.6,286047027.1,N
1502139795.4,286047027.5,N
1502139815.2,286047027.3,N
1502139835.0,286047025.4,N
1502139835.9,286047025.4,N
1502139855.8,286047028.2,N
1502139875.6,286047030.0,N
1502139895.4,286047025.7,N
1502139915.3,286047027.6,N
1502139935.1,286047029.6,N
1502139955.8,286047027.3,N
1502139975.7,286047025.8,N
1502139995.5,286047028.5,N
1502140015.3,286047029.8,N
1502140035.2,286047027.0,N
1502140055.9,286047030.7,N
1502140075.7,286047031.3,N
1502140095.6,286047028.5,N
1502140115.4,286047030.8,N
1502140135.2,286047028.7,N
1502140155.0,286047031.5,N
1502140155.9,286047031.5,N
1502140175.8,286047029.3,N
1502140195.6,286047031.2,N
1502140215.4,286047029.9,N
1502140235.3,286047027.2,N
1502140255.1,286047029.0,N
1502140275.8,286047028.6,N
1502140295.7,286047028.6,N
1502140315.5,286047030.8,N
1502140335.3,286047031.0,N
1502140355.2,286047031.4,N
1502140375.9,286047029.5,N
1502140395.7,286047029.6,N
1502140415.6,286047029.7,N
1502140435.4,286047030.0,N
1502140455.2,286047027.7,N
1502140475.0,286047027.5,N
1502140476.0,286047027.5,N
1502140495.8,286047027.2,N
1502140515.6,286047029.0,N
1502140535.4,286047028.7,N
1502140555.3,286047031.6,N
1502140575.1,286047033.1,N
1502140595.8,286047031.6,N
1502140615.7,286047028.6,N
1502140635.5,286047031.0,N
1502140655.3,286047029.2,N
1502140675.2,286047028.6,N
1502140695.9,286047031.0,N
1502140715.7,286047031.6,N
1502140735.6,286047030.0,N
1502140755.4,286047028.8,N
1502140775.2,286047029.8,N
1502140795.1,286047031.2,N
1502140796.0,286047031.2,N
1502140815.8,286047031.2,N
1502140835.6,286047031.3,N
1502140855.4,286047031.4,N
1502140875.3,286047029.4,N
1502140895.1,286047029.8,N
1502140915.8,286047029.3,N
1502140935.7,286047027.3,N
1502140955.5,286047029.5,N
1502140975.3,286047028.2,N
1502140995.2,286047027.9,N
1502141015.9,286047026.9,N
1502141035.7,286047028.2,N
1502141055.6,286047031.6,N
1502141075.4,286047028.6,N
1502141095.2,286047028.8,N
1502141115.1,286047031.6,N
1502141116.0,286047031.6,N
1502141135.8,286047029.1,N
1502141155.6,286047029.1,N
1502141175.5,286047029.5,N
1502141195.3,286047027.1,N
1502141215.1,286047029.2,N
1502141235.8,286047029.0,N
1502141255.7,286047027.0,N
1502141275.5,286047031.1,N
1502141295.3,286047031.6,N
1502141315.2,286047032.1,N
1502141335.9,286047034.4,N
1502141355.7,286047034.8,N
1502141375.6,286047030.1,N
1502141395.4,286047032.2,N
1502141415.2,286047030.9,N
1502141435.1,286047033.1,N
1502141436.0,286047033.1,N
1502141455.8,286047028.7,N
1502141475.6,286047028.8,N
1502141495.4,286047026.9,N
1502141515.3,286047028.7,N
1502141535.1,286047028.6,N
1502141555.8,286047028.8,N
1502141575.7,286047028.9,N
1502141595.5,286047027.0,N
1502141615.3,286047029.6,N
1502141635.2,286047029.4,N
1502141655.9,286047027.2,N
1502141675.7,286047027.8,N
1502141695.6,286047028.1,N
1502141715.4,286047027.9,N
1502141735.2,286047025.3,N
1502141755.0,286047027.9,N
1502141756.0,286047027.9,N
1502141775.8,286047029.8,N
1502141795.6,286047027.0,N
1502141815.4,286047029.2,N
1502141835.3,286047029.5,N
1502141855.1,286047031.6,N
1502141875.8,286047027.3,N
1502141895.7,286047029.4,N
1502141915.5,286047031.0,N
1502141935.3,286047030.8,N
1502141955.2,286047030.6,N
1502141975.9,286047029.6,N
1502141995.7,286047029.4,N
1502142015.6,286047029.0,N
1502142035.4,286047028.8,N
1502142055.2,286047028.7,N
1502142075.0,286047030.3,N
1502142076.0,286047030.3,N
1502142095.8,286047031.2,N
1502142115.6,286047031.4,N
1502142135.4,286047031.7,N
1502142155.3,286047034.3,N
1502142175.1,286047032.1,N
1502142195.8,286047033.0,N
1502142215.7,286047032.7,N
1502142235.5,286047031.4,N
1502142255.3,286047032.7,N
1502142275.2,286047030.5,N
1502142295.9,286047031.6,N
1502142315.7,286047030.2,N
1502142335.6,286047030.8,N
1502142355.4,286047028.5,N
1502142375.2,286047029.7,N
1502142395.1,286047029.8,N
1502142396.0,286047029.8,N
1502142415.8,286047029.2,N
1502142435.6,286047031.6,N
1502142455.5,286047031.4,N
1502142475.3,286047030.9,N
1502142495.1,286047028.5,N
1502142515.8,286047029.8,N
1502142535.7,286047029.4,N
1502142555.5,286047027.5,N
1502142575.3,286047029.6,N
1502142595.2,286047026.1,N
1502142615.9,286047027.8,N
1502142635.7,286047027.7,N
1502142655.6,286047027.2,N
1502142675.4,286047027.3,N
1502142695.2,286047029.2,N
1502142715.1,286047027.4,N
1502142716.0,286047027.4,N
1502142735.8,286047028.7,N
1502142755.6,286047028.5,N
1502142775.5,286047030.7,N
1502142795.3,286047031.4,N
1502142815.1,286047028.5,N
1502142835.8,286047028.5,N
1502142855.7,286047030.5,N
1502142875.5,286047032.8,N
1502142895.3,286047032.2,N
1502142915.2,286047032.2,N
1502142935.9,286047034.5,N
1502142955.7,286047032.5,N
1502142975.6,286047030.3,N
1502142995.4,286047030.8,N
1502143015.2,286047034.6,N
1502143035.0,286047033.9,N
1502143036.0,286047033.9,N
1502143055.8,286047032.9,N
1502143075.6,286047030.1,N
1502143095.4,286047033.1,N
1502143115.3,286047030.7,N
1502143135.1,286047031.1,N
1502143155.8,286047030.6,N
1502143175.7,286047032.4,N
1502143195.5,286047031.3,N
